Waarnemingen

Advertentie
Mijn weer
Guernsey, Groot Brittannië (3894): temperatuur & dauwpunt: 17.10.2017 09:00:00 - 23.10.2017 09:00:00 (BST)Guernsey, Groot Brittannië (3894): temperatuur -20cm & temperatuur -100cm: 17.10.2017 09:00:00 - 23.10.2017 09:00:00 (BST)Guernsey, Groot Brittannië (3894): windsnelheid & windstoten: 17.10.2017 09:00:00 - 23.10.2017 09:00:00 (BST)Guernsey, Groot Brittannië (3894): windrichting: 17.10.2017 09:00:00 - 23.10.2017 09:00:00 (BST)Guernsey, Groot Brittannië (3894): luchtdruk: 17.10.2017 09:00:00 - 23.10.2017 09:00:00 (BST)Guernsey, Groot Brittannië (3894): zicht: 17.10.2017 09:00:00 - 23.10.2017 09:00:00 (BST)Guernsey, Groot Brittannië (3894): neerslag: 17.10.2017 09:00:00 - 23.10.2017 09:00:00 (BST)
Datum & Tijd tt [°C] td [°C] tt -20cm [°C] tt -100cm [°C] ff [km/u] ff [kn] fx [km/u] fx [kn] dd ppp [hPa] vv [km] rr [mm]
23.10.2017 09:00:00 - - - - - - - - - - - -
23.10.2017 08:00:00 13,3 12,9 - - 31 17 - - ZZW 1020,4 6 -
23.10.2017 07:00:00 13,0 13,0 - - 28 15 - - ZW - 5 -
23.10.2017 06:00:00 13,0 11,8 - - 34 18 48 26 WZW 1020,8 6 -
23.10.2017 05:00:00 13,3 12,2 - - 26 14 - - ZW 1020,8 10 -
23.10.2017 04:00:00 13,2 12,0 - - 26 14 - - ZW 1021,1 10 -
23.10.2017 03:00:00 12,8 11,2 - - 28 15 - - WZW 1021,7 15 -
23.10.2017 02:00:00 12,7 11,4 - - 22 12 - - WZW 1021,9 18 -
23.10.2017 01:00:00 12,5 10,7 - - 26 14 - - WZW 1022,1 20 -
23.10.2017 00:00:00 12,9 9,4 - - 26 14 - - W 1022,4 30 -
22.10.2017 23:00:00 12,7 8,8 - - 24 13 46 25 W 1022,7 35 -
22.10.2017 22:00:00 12,8 8,2 - - 29 16 - - W 1022,6 40 -
22.10.2017 21:00:00 12,7 8,5 - - 28 15 - - W 1022,4 10 -
22.10.2017 20:00:00 12,3 8,4 - - 29 16 52 28 W 1022,4 10 -
22.10.2017 19:00:00 12,5 8,1 - - 28 15 57 31 W 1021,7 10 -
22.10.2017 18:00:00 12,6 7,1 - - 34 18 57 31 W 1021,5 10 -
22.10.2017 17:00:00 12,8 6,4 - - 39 21 54 29 W 1021,2 10 -
22.10.2017 16:00:00 13,3 7,6 - - 39 21 57 31 W 1021,5 10 -
22.10.2017 15:00:00 13,8 7,8 - - 41 22 65 35 W 1021,1 10 -
22.10.2017 14:00:00 13,2 7,1 - - 46 25 65 35 W 1020,8 10 -
22.10.2017 13:00:00 12,9 7,6 - - 41 22 57 31 W 1020,9 10 -
22.10.2017 12:00:00 12,5 7,3 - - 34 18 55 30 W 1020,3 10 -
22.10.2017 11:00:00 11,8 7,5 - - 39 21 67 36 W 1019,7 10 -
22.10.2017 10:00:00 10,8 6,9 13,7 15,4 34 18 55 30 WNW 1019,2 10 -
22.10.2017 09:00:00 9,7 6,8 - - 28 15 61 33 WNW 1018,7 10 -
22.10.2017 08:00:00 10,2 5,4 - - 34 18 68 37 WNW 1017,8 10 -
22.10.2017 07:00:00 11,2 4,5 - - 41 22 68 37 W 1017,5 10 -
22.10.2017 06:00:00 11,5 5,0 - - 41 22 67 36 W 1017,0 10 -
22.10.2017 05:00:00 10,1 6,6 - - 35 19 65 35 WNW 1016,6 10 -
22.10.2017 04:00:00 11,7 5,6 - - 41 22 65 35 W 1015,8 10 -
22.10.2017 03:00:00 11,7 5,7 - - 46 25 68 37 W 1015,3 18 -
22.10.2017 02:00:00 11,9 6,4 - - 48 26 72 39 W 1014,6 18 -
22.10.2017 01:00:00 11,6 7,0 - - 48 26 74 40 W 1014,2 18 -
22.10.2017 00:00:00 11,8 7,4 - - 48 26 74 40 W 1013,5 15 -
21.10.2017 23:00:00 12,3 7,4 - - 54 29 80 43 W 1013,1 15 -
21.10.2017 22:00:00 11,5 8,5 - - 50 27 85 46 W 1012,5 12 -
21.10.2017 21:00:00 11,7 8,2 - - 57 31 - - W 1011,6 10 -
21.10.2017 20:00:00 10,0 9,2 - - 61 33 94 51 W 1011,3 4,0 -
21.10.2017 19:00:00 11,9 8,4 - - 61 33 81 44 WZW 1010,6 10 -
21.10.2017 18:00:00 12,1 7,4 - - 59 32 87 47 WZW 1010,2 10 -
21.10.2017 17:00:00 12,1 9,1 - - 54 29 87 47 WZW 1009,8 10 -
21.10.2017 16:00:00 13,2 7,1 - - 55 30 80 43 WZW 1009,6 10 -
21.10.2017 15:00:00 13,2 8,0 - - 52 28 93 50 WZW 1009,0 10 -
21.10.2017 14:00:00 13,2 8,2 - - 59 32 83 45 WZW 1008,9 10 -
21.10.2017 13:00:00 13,6 7,8 - - 52 28 80 43 WZW 1008,7 10 -
21.10.2017 12:00:00 14,2 8,5 - - 55 30 78 42 WZW 1008,3 10 -
21.10.2017 11:00:00 14,2 7,9 - - 59 32 81 44 WZW 1007,9 10 -
21.10.2017 10:00:00 13,8 8,1 14,7 15,4 55 30 83 45 ZW 1007,4 10 -
21.10.2017 09:00:00 13,5 8,4 - - 54 29 83 45 ZW 1006,7 10 -
21.10.2017 08:00:00 13,6 8,2 - - 52 28 83 45 ZW 1006,4 10 -
21.10.2017 07:00:00 13,6 8,6 - - 55 30 81 44 ZW 1006,1 10 -
21.10.2017 06:00:00 13,8 9,3 - - 52 28 80 43 ZW 1006,0 10 -
21.10.2017 05:00:00 14,2 10,1 - - 50 27 76 41 ZW 1005,6 10 -
21.10.2017 04:00:00 14,1 10,5 - - 39 21 59 32 ZW 1005,4 10 -
21.10.2017 03:00:00 13,8 12,6 - - 39 21 59 32 ZW 1005,6 30 -
21.10.2017 02:00:00 14,1 12,0 - - 34 18 48 26 ZZW 1005,0 25 -
21.10.2017 01:00:00 13,5 11,6 - - 34 18 52 28 ZW 1005,2 20 -
21.10.2017 00:00:00 13,0 12,1 - - 39 21 70 38 ZW 1005,6 7 -
20.10.2017 23:00:00 15,5 15,1 - - 41 22 57 31 Z 1004,3 5 -
20.10.2017 22:00:00 15,3 14,1 - - 35 19 55 30 Z 1005,2 10 -
20.10.2017 21:00:00 15,1 12,8 - - 41 22 55 30 ZZO 1006,1 10 -
20.10.2017 20:00:00 15,3 12,0 - - 39 21 57 31 Z 1007,1 10 -
20.10.2017 19:00:00 15,4 11,2 - - 37 20 54 29 Z 1008,0 10 -
20.10.2017 18:00:00 14,9 9,7 - - 29 16 48 26 Z 1008,8 10 -
20.10.2017 17:00:00 15,2 9,2 - - 28 15 - - Z 1009,5 10 -
20.10.2017 16:00:00 15,5 9,1 - - 26 14 - - Z 1010,3 10 -
20.10.2017 15:00:00 14,5 8,7 - - 22 12 - - ZZW 1010,8 10 -
20.10.2017 14:00:00 14,5 7,6 - - 31 17 - - ZW 1011,5 10 -
20.10.2017 13:00:00 13,8 8,0 - - 29 16 - - ZW 1011,8 10 -
20.10.2017 12:00:00 14,0 7,4 - - 28 15 - - ZW 1011,8 10 -
20.10.2017 11:00:00 14,5 7,9 - - 28 15 46 25 WZW 1011,5 10 -
20.10.2017 10:00:00 12,8 7,9 14,7 15,4 31 17 52 28 W 1011,2 10 -
20.10.2017 09:00:00 12,4 6,0 - - 35 19 54 29 W 1010,5 10 -
20.10.2017 08:00:00 12,2 6,4 - - 39 21 57 31 W 1009,3 10 -
20.10.2017 07:00:00 12,5 6,9 - - 39 21 61 33 W 1008,3 10 -
20.10.2017 06:00:00 12,0 7,0 - - 44 24 - - W - 10 -
20.10.2017 05:00:00 12,6 8,2 - - 48 26 70 38 W 1006,3 10 -
20.10.2017 04:00:00 12,6 8,0 - - 50 27 70 38 W 1005,4 10 -
20.10.2017 03:00:00 12,7 8,9 - - 42 23 78 42 W 1004,7 18 -
20.10.2017 02:00:00 12,4 8,7 - - 48 26 78 42 WZW 1004,0 20 -
20.10.2017 01:00:00 12,9 7,4 - - 46 25 74 40 WZW 1003,4 25 -
20.10.2017 00:00:00 12,9 8,4 - - 48 26 68 37 WZW 1002,8 30 -
19.10.2017 23:00:00 13,2 9,3 - - 44 24 63 34 WZW 1002,2 30 -
19.10.2017 22:00:00 13,0 11,1 - - 37 20 - - WZW 1000,6 25 -
19.10.2017 21:00:00 13,0 11,1 - - 37 20 - - WZW 1000,6 10 -
19.10.2017 20:00:00 13,4 12,3 - - 41 22 68 37 WZW 999,8 10 -
19.10.2017 19:00:00 14,1 13,6 - - 42 23 67 36 Z 998,8 6 -
19.10.2017 18:00:00 13,9 13,3 - - 35 19 55 30 Z 999,4 5 -
19.10.2017 17:00:00 14,6 13,6 - - 35 19 50 27 ZZO 999,8 5 -
19.10.2017 16:00:00 14,8 12,9 - - 31 17 46 25 Z 1001,1 10 -
19.10.2017 15:00:00 15,5 12,9 - - 28 15 - - Z 1001,8 10 -
19.10.2017 14:00:00 15,5 12,4 - - 24 13 - - Z 1002,3 10 -
19.10.2017 13:00:00 15,3 12,7 - - 24 13 - - Z 1003,3 10 -
19.10.2017 12:00:00 14,9 14,4 - - 22 12 - - ZZW 1004,2 10 -
19.10.2017 11:00:00 14,7 14,5 - - 18 10 - - Z 1004,2 1,8 -
19.10.2017 10:00:00 15,5 15,3 15,2 15,5 16 9 - - ZZW 1003,9 1,8 -
19.10.2017 09:00:00 55,5 15,3 - - 13 7 - - ZZO 1004,3 2,2 -
19.10.2017 08:00:00 15,4 15,3 - - 11 6 - - Z 1004,3 2,0 -
19.10.2017 07:00:00 15,3 15,0 - - 11 6 - - ZO 1004,6 1,8 -
19.10.2017 06:00:00 15,3 15,0 - - 15 8 - - OZO 1005,3 1,8 -
19.10.2017 05:00:00 15,2 14,9 - - 16 9 - - OZO 1005,7 0,8 -
19.10.2017 04:00:00 14,0 12,5 - - 11 6 - - O 1006,6 10 -
19.10.2017 03:00:00 13,9 13,4 - - 15 8 - - O 1007,4 30 -
19.10.2017 02:00:00 13,7 13,3 - - 9 5 - - O 1008,4 20 -
19.10.2017 01:00:00 13,5 13,3 - - 5 3 - - ONO 1009,0 30 0,0
19.10.2017 00:00:00 13,3 13,0 - - 4 2 - - ONO 1009,5 30 -
18.10.2017 23:00:00 13,1 12,8 - - 8 4 - - ONO 1009,9 30 -
18.10.2017 22:00:00 12,5 12,4 - - 4 2 - - NO 1010,4 30 -
18.10.2017 21:00:00 12,8 12,4 - - 0 0 - - N 1010,4 10 -
18.10.2017 20:00:00 12,9 12,3 - - 4 2 - - NNW 1010,3 10 -
18.10.2017 19:00:00 16,9 12,3 - - 4 2 - - NNW 1010,1 10 -
18.10.2017 18:00:00 14,4 13,1 - - 4 2 - - NW 1009,9 10 -
18.10.2017 17:00:00 15,0 13,4 - - 8 4 - - W 1010,0 10 -
18.10.2017 16:00:00 15,3 13,3 - - 13 7 - - W 1010,3 10 -
18.10.2017 15:00:00 16,3 13,7 - - 11 6 - - W 1009,8 10 -
18.10.2017 14:00:00 16,3 14,0 - - 9 5 - - WZW 1010,0 10 -
18.10.2017 13:00:00 16,1 14,2 - - 13 7 - - ZW 1010,6 10 -
18.10.2017 12:00:00 15,9 14,6 - - 13 7 - - ZW 1010,8 10 -
18.10.2017 11:00:00 15,3 14,6 - - 13 7 - - ZW 1010,7 10 -
18.10.2017 10:00:00 15,0 14,8 15,0 15,5 13 7 - - ZW 1010,5 8 -
18.10.2017 09:00:00 15,3 15,2 - - 15 8 - - ZW 1010,5 2,8 -
18.10.2017 08:00:00 15,4 15,2 - - 15 8 - - ZW 1009,9 5 -
18.10.2017 07:00:00 15,5 15,3 - - 15 8 - - ZZW 1010,0 3,5 -
18.10.2017 06:00:00 15,0 14,9 - - 9 5 - - ZZW 1010,0 2,7 -
18.10.2017 05:00:00 15,1 14,8 - - 8 4 - - Z 1010,1 4,0 -
18.10.2017 04:00:00 14,7 14,3 - - 8 4 - - ZO 1010,6 10 -
18.10.2017 03:00:00 14,9 14,2 - - 13 7 - - ZO 1011,1 12 -
18.10.2017 02:00:00 14,9 14,1 - - 16 9 - - OZO 1011,4 17 -
18.10.2017 01:00:00 14,8 14,0 - - 18 10 - - OZO 1012,0 10 -
18.10.2017 00:00:00 14,5 13,4 - - 18 10 - - O 1012,6 15 -
17.10.2017 23:00:00 14,3 12,9 - - 15 8 - - O 1013,1 20 -
17.10.2017 22:00:00 14,1 12,2 - - 18 10 - - O 1013,7 25 -
17.10.2017 21:00:00 13,8 11,5 - - 21 11 - - ONO 1014,0 10 -
17.10.2017 20:00:00 13,5 10,9 - - 26 14 - - ONO 1014,3 10 -
17.10.2017 19:00:00 13,7 11,0 - - 21 11 - - ONO 1015,1 10 -
17.10.2017 18:00:00 13,6 10,2 - - 18 10 - - NO 1015,6 10 -
17.10.2017 17:00:00 13,1 10,9 - - 11 6 - - NNO 1016,3 10 -
17.10.2017 16:00:00 13,4 10,9 - - 13 7 - - NNO 1016,9 10 -
17.10.2017 15:00:00 13,6 10,8 - - 15 8 - - NO 1017,5 10 -
17.10.2017 14:00:00 13,0 10,7 - - 9 5 - - NNO 1018,9 10 -
17.10.2017 13:00:00 13,1 10,7 - - 2 1 - - - 1020,2 10 -
17.10.2017 12:00:00 13,3 11,0 - - 8 4 - - O 1020,3 10 -
17.10.2017 11:00:00 13,7 10,0 - - 8 4 - - ZO 1021,2 10 -
17.10.2017 10:00:00 12,9 10,7 15,0 15,7 0 0 - - N 1021,0 10 -
17.10.2017 09:00:00 12,9 10,0 - - 5 3 - - ZZO 1021,4 10 -

tt = temperatuur
td = dauwpunt
tt -20cm = temperatuur -20cm
tt -100cm = temperatuur -100cm
ff = windsnelheid
fx = windstoten
dd = windrichting
ppp = luchtdruk
vv = zicht
rr = neerslag

Weerstations in de omgeving